Time,TemperatureF,DewpointF,PressureIn,WindDirection,WindDirectionDegrees,WindSpeedMPH,WindSpeedGustMPH,Humidity,HourlyPrecipIn,Conditions,Clouds,dailyrainin,SoftwareType,DateUTC
2013-01-25 00:01:00,78.4,73.0,29.96,East,83,3.0,10.0,83,0.00,,,0.00,weatherlink.com 1.10,2013-01-25 04:01:00,
2013-01-25 00:16:00,78.3,73.0,29.96,ESE,108,1.0,9.0,83,0.00,,,0.00,weatherlink.com 1.10,2013-01-25 04:16:00,
2013-01-25 00:31:00,78.5,74.0,29.96,East,87,7.0,9.0,85,0.00,,,0.00,weatherlink.com 1.10,2013-01-25 04:31:00,
2013-01-25 00:46:00,78.9,74.0,29.96,East,96,3.0,11.0,84,0.00,,,0.00,weatherlink.com 1.10,2013-01-25 04:46:00,
2013-01-25 01:01:00,78.9,73.0,29.95,ESE,105,7.0,11.0,83,0.00,,,0.00,weatherlink.com 1.10,2013-01-25 05:01:00,
2013-01-25 01:16:00,78.8,73.0,29.95,East,79,6.0,10.0,83,0.00,,,0.00,weatherlink.com 1.10,2013-01-25 05:16:00,
2013-01-25 01:31:00,78.9,73.0,29.95,NE,51,5.0,10.0,82,0.00,,,0.00,weatherlink.com 1.10,2013-01-25 05:31:00,
2013-01-25 01:46:00,78.8,73.0,29.94,East,84,5.0,10.0,83,0.00,,,0.00,weatherlink.com 1.10,2013-01-25 05:46:00,
2013-01-25 02:01:00,78.7,73.0,29.94,ENE,77,4.0,9.0,83,0.00,,,0.00,weatherlink.com 1.10,2013-01-25 06:01:00,
2013-01-25 02:16:00,78.7,74.0,29.94,East,81,2.0,7.0,84,0.00,,,0.00,weatherlink.com 1.10,2013-01-25 06:16:00,
2013-01-25 02:31:00,78.9,73.0,29.93,NE,36,6.0,14.0,83,0.00,,,0.00,weatherlink.com 1.10,2013-01-25 06:31:00,
2013-01-25 02:46:00,78.8,73.0,29.92,ENE,78,4.0,9.0,83,0.00,,,0.00,weatherlink.com 1.10,2013-01-25 06:46:00,
2013-01-25 03:01:00,78.7,74.0,29.92,NE,50,7.0,11.0,84,0.00,,,0.00,weatherlink.com 1.10,2013-01-25 07:01:00,
2013-01-25 03:16:00,78.6,73.0,29.91,ENE,65,2.0,11.0,83,0.00,,,0.00,weatherlink.com 1.10,2013-01-25 07:16:00,
2013-01-25 03:31:00,78.5,73.0,29.91,East,86,3.0,11.0,84,0.00,,,0.00,weatherlink.com 1.10,2013-01-25 07:31:00,
2013-01-25 03:46:00,78.5,73.0,29.91,East,80,3.0,11.0,83,0.00,,,0.00,weatherlink.com 1.10,2013-01-25 07:46:00,
2013-01-25 04:01:00,78.6,74.0,29.91,ENE,69,8.0,9.0,85,0.00,,,0.00,weatherlink.com 1.10,2013-01-25 08:01:00,
2013-01-25 04:16:00,78.4,73.0,29.91,ENE,58,4.0,11.0,84,0.00,,,0.00,weatherlink.com 1.10,2013-01-25 08:16:00,
2013-01-25 04:31:00,78.5,73.0,29.91,ENE,70,4.0,11.0,84,0.00,,,0.00,weatherlink.com 1.10,2013-01-25 08:31:00,
2013-01-25 04:46:00,78.5,73.0,29.92,ENE,61,4.0,11.0,84,0.00,,,0.00,weatherlink.com 1.10,2013-01-25 08:46:00,
2013-01-25 05:01:00,78.7,73.0,29.92,ENE,60,4.0,12.0,83,0.00,,,0.00,weatherlink.com 1.10,2013-01-25 09:01:00,
2013-01-25 05:16:00,77.7,72.0,29.93,ESE,103,8.0,15.0,82,0.00,,,0.00,weatherlink.com 1.10,2013-01-25 09:16:00,
2013-01-25 05:32:00,77.5,72.0,29.94,East,82,5.0,12.0,83,0.00,,,0.00,weatherlink.com 1.10,2013-01-25 09:32:00,
2013-01-25 05:47:00,77.8,72.0,29.93,SE,142,6.0,10.0,83,0.00,,,0.00,weatherlink.com 1.10,2013-01-25 09:47:00,
2013-01-25 06:02:00,78.4,73.0,29.94,NE,36,0.0,11.0,84,0.00,,,0.00,weatherlink.com 1.10,2013-01-25 10:02:00,
2013-01-25 06:17:00,78.5,74.0,29.94,ENE,74,8.0,11.0,85,0.00,,,0.00,weatherlink.com 1.10,2013-01-25 10:17:00,
2013-01-25 06:32:00,78.2,73.0,29.95,NNE,21,3.0,13.0,84,0.00,,,0.00,weatherlink.com 1.10,2013-01-25 10:32:00,
2013-01-25 06:47:00,77.9,73.0,29.95,NE,49,2.0,9.0,85,0.00,,,0.00,weatherlink.com 1.10,2013-01-25 10:47:00,
2013-01-25 07:17:00,77.1,74.0,29.96,ENE,72,5.0,7.0,89,0.02,,,0.02,weatherlink.com 1.10,2013-01-25 11:17:00,
2013-01-25 07:32:00,76.5,74.0,29.96,ENE,66,3.0,8.0,90,0.02,,,0.02,weatherlink.com 1.10,2013-01-25 11:32:00,
2013-01-25 07:47:00,76.4,73.0,29.96,ENE,58,2.0,10.0,89,0.03,,,0.03,weatherlink.com 1.10,2013-01-25 11:47:00,
2013-01-25 08:02:00,76.8,73.0,29.97,NE,36,5.0,11.0,87,0.03,,,0.03,weatherlink.com 1.10,2013-01-25 12:02:00,
2013-01-25 08:17:00,77.5,73.0,29.98,NE,44,5.0,12.0,87,0.01,,,0.03,weatherlink.com 1.10,2013-01-25 12:17:00,
2013-01-25 08:32:00,79.3,74.0,29.98,NE,49,4.0,16.0,84,0.01,,,0.03,weatherlink.com 1.10,2013-01-25 12:32:00,
2013-01-25 08:47:00,80.4,74.0,29.99,ENE,64,5.0,16.0,80,0.00,,,0.03,weatherlink.com 1.10,2013-01-25 12:47:00,
2013-01-25 09:02:00,81.4,74.0,30.00,NE,49,9.0,15.0,77,0.00,,,0.03,weatherlink.com 1.10,2013-01-25 13:02:00,
2013-01-25 09:17:00,81.2,73.0,30.00,ENE,62,12.0,14.0,77,0.00,,,0.03,weatherlink.com 1.10,2013-01-25 13:17:00,
2013-01-25 09:32:00,83.2,74.0,30.00,NE,55,3.0,17.0,74,0.00,,,0.03,weatherlink.com 1.10,2013-01-25 13:32:00,
2013-01-25 09:47:00,82.7,74.0,30.00,East,92,7.0,17.0,74,0.00,,,0.03,weatherlink.com 1.10,2013-01-25 13:47:00,
2013-01-25 10:02:00,82.6,74.0,30.00,ENE,63,4.0,16.0,75,0.00,,,0.03,weatherlink.com 1.10,2013-01-25 14:02:00,
2013-01-25 10:17:00,83.6,74.0,30.00,East,88,7.0,18.0,73,0.00,,,0.03,weatherlink.com 1.10,2013-01-25 14:17:00,
2013-01-25 10:32:00,83.2,74.0,30.00,East,82,7.0,18.0,73,0.00,,,0.03,weatherlink.com 1.10,2013-01-25 14:32:00,
2013-01-25 10:47:00,83.9,74.0,30.00,ENE,74,10.0,17.0,72,0.00,,,0.03,weatherlink.com 1.10,2013-01-25 14:47:00,
2013-01-25 11:02:00,83.8,73.0,30.00,NE,49,4.0,17.0,71,0.00,,,0.03,weatherlink.com 1.10,2013-01-25 15:02:00,
2013-01-25 11:17:00,84.3,74.0,29.99,ENE,75,11.0,18.0,71,0.00,,,0.03,weatherlink.com 1.10,2013-01-25 15:17:00,
2013-01-25 11:32:00,84.4,74.0,29.99,ENE,74,8.0,15.0,70,0.00,,,0.03,weatherlink.com 1.10,2013-01-25 15:32:00,
2013-01-25 11:47:00,84.4,73.0,29.98,ENE,67,7.0,15.0,69,0.00,,,0.03,weatherlink.com 1.10,2013-01-25 15:47:00,
2013-01-25 12:02:00,84.7,73.0,29.98,NE,56,9.0,17.0,69,0.00,,,0.03,weatherlink.com 1.10,2013-01-25 16:02:00,
2013-01-25 12:17:00,84.7,74.0,29.98,ENE,70,5.0,15.0,70,0.00,,,0.03,weatherlink.com 1.10,2013-01-25 16:17:00,
2013-01-25 12:32:00,84.7,73.0,29.97,NNE,24,7.0,16.0,69,0.00,,,0.03,weatherlink.com 1.10,2013-01-25 16:32:00,
2013-01-25 12:47:00,85.1,73.0,29.96,East,86,8.0,14.0,68,0.00,,,0.03,weatherlink.com 1.10,2013-01-25 16:47:00,
2013-01-25 13:02:00,85.0,74.0,29.96,East,90,8.0,18.0,69,0.00,,,0.03,weatherlink.com 1.10,2013-01-25 17:02:00,
2013-01-25 13:17:00,84.1,73.0,29.95,ENE,59,5.0,17.0,70,0.00,,,0.03,weatherlink.com 1.10,2013-01-25 17:17:00,
2013-01-25 13:32:00,85.0,74.0,29.95,ENE,66,7.0,18.0,69,0.00,,,0.03,weatherlink.com 1.10,2013-01-25 17:32:00,
2013-01-25 13:47:00,84.2,73.0,29.94,NE,40,5.0,15.0,70,0.00,,,0.03,weatherlink.com 1.10,2013-01-25 17:47:00,
2013-01-25 14:02:00,84.3,74.0,29.93,ENE,69,5.0,19.0,71,0.00,,,0.03,weatherlink.com 1.10,2013-01-25 18:02:00,
2013-01-25 14:17:00,83.9,73.0,29.93,ENE,69,5.0,16.0,70,0.00,,,0.03,weatherlink.com 1.10,2013-01-25 18:17:00,
2013-01-25 14:32:00,83.8,74.0,29.91,ESE,105,11.0,16.0,72,0.00,,,0.03,weatherlink.com 1.10,2013-01-25 18:32:00,
2013-01-25 14:47:00,84.1,74.0,29.91,NNE,30,4.0,18.0,71,0.00,,,0.03,weatherlink.com 1.10,2013-01-25 18:47:00,
2013-01-25 15:02:00,83.8,73.0,29.90,NE,55,8.0,17.0,71,0.00,,,0.03,weatherlink.com 1.10,2013-01-25 19:02:00,
2013-01-25 15:17:00,83.6,73.0,29.90,North,5,8.0,14.0,71,0.00,,,0.03,weatherlink.com 1.10,2013-01-25 19:17:00,
2013-01-25 15:32:00,83.0,74.0,29.90,ENE,76,8.0,15.0,73,0.00,,,0.03,weatherlink.com 1.10,2013-01-25 19:32:00,
2013-01-25 15:47:00,82.7,74.0,29.89,NNW,346,4.0,15.0,74,0.00,,,0.03,weatherlink.com 1.10,2013-01-25 19:47:00,
2013-01-25 16:02:00,83.0,73.0,29.89,ENE,74,3.0,13.0,72,0.00,,,0.03,weatherlink.com 1.10,2013-01-25 20:02:00,
2013-01-25 16:17:00,83.1,73.0,29.90,ENE,58,9.0,14.0,72,0.00,,,0.03,weatherlink.com 1.10,2013-01-25 20:17:00,
2013-01-25 16:32:00,82.4,73.0,29.90,ENE,63,8.0,14.0,73,0.00,,,0.03,weatherlink.com 1.10,2013-01-25 20:32:00,
2013-01-25 16:47:00,82.1,73.0,29.90,NNW,342,8.0,15.0,74,0.00,,,0.03,weatherlink.com 1.10,2013-01-25 20:47:00,
2013-01-25 17:02:00,81.9,73.0,29.90,NE,52,6.0,15.0,74,0.00,,,0.03,weatherlink.com 1.10,2013-01-25 21:02:00,
2013-01-25 17:17:00,81.9,73.0,29.91,NE,55,9.0,13.0,75,0.00,,,0.03,weatherlink.com 1.10,2013-01-25 21:17:00,
2013-01-25 17:32:00,81.5,73.0,29.91,East,80,9.0,13.0,76,0.00,,,0.03,weatherlink.com 1.10,2013-01-25 21:32:00,
2013-01-25 17:47:00,81.5,73.0,29.91,East,87,6.0,12.0,76,0.00,,,0.03,weatherlink.com 1.10,2013-01-25 21:47:00,
2013-01-25 18:02:00,81.0,73.0,29.91,ENE,63,7.0,12.0,76,0.00,,,0.03,weatherlink.com 1.10,2013-01-25 22:02:00,
2013-01-25 18:17:00,80.6,73.0,29.91,ENE,57,10.0,12.0,77,0.00,,,0.03,weatherlink.com 1.10,2013-01-25 22:17:00,
2013-01-25 18:32:00,80.4,73.0,29.92,ENE,61,10.0,14.0,79,0.00,,,0.03,weatherlink.com 1.10,2013-01-25 22:32:00,
2013-01-25 18:47:00,80.2,73.0,29.92,NE,53,7.0,11.0,78,0.00,,,0.03,weatherlink.com 1.10,2013-01-25 22:47:00,
2013-01-25 19:02:00,80.2,73.0,29.92,East,79,2.0,12.0,78,0.00,,,0.03,weatherlink.com 1.10,2013-01-25 23:02:00,
2013-01-25 19:17:00,80.1,73.0,29.93,NE,42,8.0,11.0,78,0.00,,,0.03,weatherlink.com 1.10,2013-01-25 23:17:00,
2013-01-25 19:32:00,79.9,73.0,29.93,ENE,71,5.0,12.0,79,0.00,,,0.03,weatherlink.com 1.10,2013-01-25 23:32:00,
2013-01-25 19:48:00,79.8,73.0,29.93,ENE,66,5.0,15.0,79,0.00,,,0.03,weatherlink.com 1.10,2013-01-25 23:48:00,
2013-01-25 20:03:00,79.7,73.0,29.94,ENE,76,5.0,8.0,80,0.00,,,0.03,weatherlink.com 1.10,2013-01-26 00:03:00,
2013-01-25 20:18:00,79.9,73.0,29.94,NE,55,5.0,11.0,80,0.00,,,0.03,weatherlink.com 1.10,2013-01-26 00:18:00,
2013-01-25 20:33:00,80.0,73.0,29.95,ENE,63,4.0,11.0,80,0.00,,,0.03,weatherlink.com 1.10,2013-01-26 00:33:00,
2013-01-25 20:48:00,80.1,73.0,29.95,East,90,7.0,15.0,80,0.00,,,0.03,weatherlink.com 1.10,2013-01-26 00:48:00,
2013-01-25 21:03:00,80.0,73.0,29.96,NE,41,11.0,14.0,80,0.00,,,0.03,weatherlink.com 1.10,2013-01-26 01:03:00,
2013-01-25 21:18:00,80.2,73.0,29.96,NE,53,5.0,14.0,79,0.00,,,0.03,weatherlink.com 1.10,2013-01-26 01:18:00,
2013-01-25 21:33:00,80.1,73.0,29.96,NE,41,4.0,13.0,80,0.00,,,0.03,weatherlink.com 1.10,2013-01-26 01:33:00,
2013-01-25 21:48:00,77.4,73.0,29.97,NNE,32,5.0,17.0,85,0.10,,,0.13,weatherlink.com 1.10,2013-01-26 01:48:00,
2013-01-25 22:03:00,76.4,74.0,29.97,NE,51,3.0,10.0,91,0.14,,,0.17,weatherlink.com 1.10,2013-01-26 02:03:00,
2013-01-25 22:18:00,76.2,74.0,29.97,ENE,57,4.0,10.0,91,0.14,,,0.17,weatherlink.com 1.10,2013-01-26 02:18:00,
2013-01-25 22:33:00,76.3,74.0,29.97,NE,47,5.0,8.0,91,0.14,,,0.17,weatherlink.com 1.10,2013-01-26 02:33:00,
2013-01-25 22:48:00,76.2,73.0,29.97,East,85,2.0,10.0,90,0.02,,,0.17,weatherlink.com 1.10,2013-01-26 02:48:00,
2013-01-25 23:03:00,76.2,74.0,29.97,ENE,78,3.0,7.0,91,0.00,,,0.17,weatherlink.com 1.10,2013-01-26 03:03:00,
2013-01-25 23:18:00,76.5,74.0,29.96,East,82,3.0,7.0,91,0.00,,,0.17,weatherlink.com 1.10,2013-01-26 03:18:00,
2013-01-25 23:33:00,76.6,74.0,29.96,NE,56,4.0,8.0,91,0.00,,,0.17,weatherlink.com 1.10,2013-01-26 03:33:00,
2013-01-25 23:48:00,76.9,74.0,29.96,ENE,62,7.0,9.0,90,0.00,,,0.17,weatherlink.com 1.10,2013-01-26 03:48:00,